Regional Weather Roundup
Issued by NWS

Home | Current Version | Previous Version | Text Only | Print | Product List | Glossary On
Versions: 1 2 3 4 5 6 7 8 9 10 11 12 13 14 15 16 17 18 19 20 21 22 23 24 25 26 27 28 29 30 31 32 33 34 35 36 37 38 39 40 41 42 43 44 45 46 47 48 49 50
474
ASUS45 KPSR 200010
RWRAZ

ARIZONA HOURLY REGIONAL WEATHER ROUNDUP
NATIONAL WEATHER SERVICE PHOENIX AZ
500 PM MST THU OCT 19 2017

NOTE: FAIR INDICATES FEW OR NO CLOUDS BELOW 12,000 FEET WITH NO
SIGNIFICANT WEATHER AND/OR OBSTRUCTIONS TO VISIBILITY.

AZZ001>003-036-200100-
NORTHWEST ARIZONA

CITY           SKY/WX    TMP DP  RH WIND       PRES   REMARKS
BULLHEAD CITY  SUNNY     93  27   9 SW9       29.67
KINGMAN        CLEAR     81  37  20 SW14      29.86S
6HR MIN TEMP:  81; 6HR MAX TEMP:  85;

$$

AZZ004>008-015-016-018-200100-
NORTH CENTRAL ARIZONA

CITY           SKY/WX    TMP DP  RH WIND       PRES   REMARKS
GRAND CANYON   LGT RAIN  68  29  23 SW9       30.03F
6HR MIN TEMP:  67; 6HR MAX TEMP:  72; 6HR PCP: TRACE;

WILLIAMS       PTCLDY    68  27  21 SW13G22   30.04F
PRESCOTT       CLEAR     74  32  21 S10       29.96F
6HR MIN TEMP:  74; 6HR MAX TEMP:  79;

FLAGSTAFF      PTCLDY    65  26  23 SW16G23   30.07F
6HR MIN TEMP:  64; 6HR MAX TEMP:  69;

PAYSON           N/A     73  32  21 S7G14     30.00F
PAGE           CLOUDY    74  31  20 CALM      29.88F
6HR MIN TEMP:  66; 6HR MAX TEMP:  78;

$$

AZZ009>014-017-200100-
NORTHEAST ARIZONA

CITY           SKY/WX    TMP DP  RH WIND       PRES   REMARKS
WINSLOW        PTCLDY    74  38  27 SE15      29.95F
6HR MIN TEMP:  66; 6HR MAX TEMP:  77; 6HR PCP: TRACE;

SAINT JOHNS    CLOUDY    66  39  37 E3        30.04F
6HR MIN TEMP:  64; 6HR MAX TEMP:  75; 6HR PCP: TRACE;

WINDOW ROCK    CLOUDY    62  36  37 S9        30.11S
6HR MIN TEMP:  57; 6HR MAX TEMP:  68; 6HR PCP:  0.01;

SHOW LOW       CLEAR     66  37  34 S7        30.08F
$$

AZZ540-542>544-546-548-200100-
GREATER PHOENIX AREA

CITY           SKY/WX    TMP DP  RH WIND       PRES   REMARKS
PHOENIX        PTCLDY    94  37  13 VRB6      29.70F
6HR MIN TEMP:  86; 6HR MAX TEMP:  96;

BUCKEYE        CLEAR     91  59  33 S8        29.72F
GLENDALE       PTCLDY    93  41  16 SW9       29.73F
LUKE AFB       CLEAR     92  42  17 SW7       29.70F
6HR MIN TEMP:  85; 6HR MAX TEMP:  94;

DEER VALLEY    CLEAR     90  38  16 W12         N/A
6HR MIN TEMP:  86; 6HR MAX TEMP:  93;

SCOTTSDALE     CLEAR     92  35  13 SW7       29.75F
6HR MIN TEMP:  86; 6HR MAX TEMP:  93;

MESA-FALCON    PTCLDY    91  39  16 SW6       29.74F
MESA-GATEWAY   PTCLDY    91  37  15 SW5       29.74F
CHANDLER       PTCLDY    93  36  13 S7        29.72F
$$

AZZ539-553-200100-
SOUTHWEST MARICOPA COUNTY AND PINAL COUNTY

CITY           SKY/WX    TMP DP  RH WIND       PRES   REMARKS
CASA GRANDE    NOT AVBL
GILA BEND      PTCLDY    91  39  16 SW6       29.71F
$$

AZZ503-504-507>509-200100-
SOUTHEAST ARIZONA

CITY           SKY/WX    TMP DP  RH WIND       PRES   REMARKS
TUCSON         CLEAR     91  34  13 SW8       29.83F
6HR MIN TEMP:  84; 6HR MAX TEMP:  94;

DAVIS-MONTHAN  MOCLDY    90  35  14 W7G21     29.81F
6HR MIN TEMP:  90; 6HR MAX TEMP:  95;

RYAN FIELD     CLEAR     91  32  12 SW10      29.82S
NOGALES        MOCLDY    83  34  17 SW12      29.94S
6HR MIN TEMP:  83; 6HR MAX TEMP:  90;

SIERRA VISTA   CLEAR     80  30  16 SW12      29.99S
6HR MIN TEMP:  80; 6HR MAX TEMP:  87;

DOUGLAS        PTCLDY    83  27  13 SW12      29.93F
6HR MIN TEMP:  82; 6HR MAX TEMP:  87;

SAFFORD        PTCLDY    85  40  20 SE6       29.85F
6HR MIN TEMP:  81; 6HR MAX TEMP:  88;

$$

AZZ532-200100-
SOUTHWEST ARIZONA

CITY           SKY/WX    TMP DP  RH WIND       PRES   REMARKS
YUMA           MOSUNNY   93  37  14 W3        29.69F
6HR MIN TEMP:  87; 6HR MAX TEMP:  95;

$$

CAZ041-043-047-048-061-525>527-560>570-200100-
SOUTHERN CALIFORNIA

CITY           SKY/WX    TMP DP  RH WIND       PRES   REMARKS
DOWNTOWN L.A.  SUNNY     72  61  68 VRB3      29.86F
6HR MIN TEMP:  72; 6HR MAX TEMP:  78;

L.A. AIRPORT   MOSUNNY   70  61  73 SW9       29.87F
6HR MIN TEMP:  69; 6HR MAX TEMP:  73;

SAN DIEGO      PTSUNNY   71  61  70 W5        29.89F
6HR MIN TEMP:  69; 6HR MAX TEMP:  72;

BURBANK        SUNNY     72  57  59 S10       29.86F
6HR MIN TEMP:  71; 6HR MAX TEMP:  79;

ONTARIO        MOSUNNY   73  58  59 W15       29.86S
6HR MIN TEMP:  70; 6HR MAX TEMP:  78;

RIVERSIDE      SUNNY     74  59  59 W16       29.86S
6HR MIN TEMP:  70; 6HR MAX TEMP:  78;

PALM SPRINGS   MOSUNNY   89  40  17 NW15G23   29.71F
6HR MIN TEMP:  89; 6HR MAX TEMP:  95;

EL CENTRO NAS  PTSUNNY   92  25   9 W25       29.69F
6HR MIN TEMP:  89; 6HR MAX TEMP:  99; 6HR PCP: TRACE;

IMPERIAL       PTSUNNY   92  31  11 W17       29.67S
6HR MIN TEMP:  89; 6HR MAX TEMP:  98;

BLYTHE         PTSUNNY   93  36  13 SW10      29.68F
6HR MIN TEMP:  78; 6HR MAX TEMP:  95;

NEEDLES        SUNNY     96  26   8 S9G17     29.68F
6HR MIN TEMP:  78; 6HR MAX TEMP:  96;

$$

NVZ020-UTZ003-200100-
SOUTHERN NEVADA-UTAH

CITY           SKY/WX    TMP DP  RH WIND       PRES   REMARKS
LAS VEGAS      SUNNY     88  31  13 SW10G21   29.73F
6HR MIN TEMP:  80; 6HR MAX TEMP:  89;

SALT LAKE CITY MOCLDY    66  37  34 W7        29.83F
6HR MIN TEMP:  65; 6HR MAX TEMP:  76;

$$

NMZ009-TXZ055-200100-
NEW MEXICO-WEST TEXAS

CITY           SKY/WX    TMP DP  RH WIND       PRES   REMARKS
ALBUQUERQUE    CLOUDY    71  38  29 SW16      30.05R
6HR MIN TEMP:  64; 6HR MAX TEMP:  76;

EL PASO        PTCLDY    83  42  23 S9        29.93F
6HR MIN TEMP:  77; 6HR MAX TEMP:  85;

$$


........................KEY........................
SKY/WX - SKY CONDITION/WEATHER
TMP    - TEMPERATURE IN FAHRENHEIT
DP     - DEW POINT IN FAHRENHEIT
RH     - RELATIVE HUMIDITY IN PERCENT
WIND   - DIRECTION AND SPEED IN MILES PER HOUR (MPH)
VRB    - VARIABLE WIND DIRECTION
PRES   - MEAN SEA LEVEL PRESSURE IN INCHES OF MERCURY
         F - FALLING PRESSURE   R - RISING PRESSURE
         S - STEADY PRESSURE
VSB    - VISIBILITY IN MILES
HX     - HEAT INDEX IN FAHRENHEIT
WCI    - WIND CHILL INDEX IN FAHRENHEIT
TC     - TEMPERATURE IN CELSIUS WHICH IS ALSO KNOWN AS
         TEMPERATURE IN CENTIGRADE
AFB    - AIR FORCE BASE
         LUKE AFB IS LUKE AIR FORCE BASE
         DAVIS-MONTHAN IS DAVIS-MONTHAN AIR FORCE BASE
NAS    - NAVAL AIR STATION
         EL CENTRO NAS IS EL CENTRO NAVAL AIR STATION
N/A    - NOT AVAILABLE





USA.gov is the U.S. government's official web portal to all federal, state and local government web resources and services.